Time,TemperatureF,DewpointF,PressureIn,WindDirection,WindDirectionDegrees,WindSpeedMPH,WindSpeedGustMPH,Humidity,HourlyPrecipIn,Conditions,Clouds,dailyrainin,SolarRadiationWatts/m^2,SoftwareType,DateUTC
2013-02-14 00:21:00,51.0,19.0,-100.00,North,5,6.0,12.0,28,0.00,,,0.00,0.000000,,2013-02-14 07:21:00,
2013-02-14 00:31:00,51.0,19.0,-100.00,North,5,6.0,12.0,28,0.00,,,0.00,0.000000,,2013-02-14 07:31:00,
2013-02-14 00:41:00,51.0,19.0,-100.00,North,5,6.0,12.0,28,0.00,,,0.00,0.000000,,2013-02-14 07:41:00,
2013-02-14 00:51:00,51.0,19.0,-100.00,North,5,6.0,12.0,28,0.00,,,0.00,0.000000,,2013-02-14 07:51:00,
2013-02-14 00:52:00,50.0,18.0,-100.00,North,352,6.0,14.0,28,0.00,,,0.00,0.000000,,2013-02-14 07:52:00,
2013-02-14 01:11:00,50.0,18.0,-100.00,North,352,6.0,14.0,28,0.00,,,0.00,0.000000,,2013-02-14 08:11:00,
2013-02-14 01:21:00,50.0,18.0,-100.00,North,352,6.0,14.0,28,0.00,,,0.00,0.000000,,2013-02-14 08:21:00,
2013-02-14 01:31:00,50.0,18.0,-100.00,North,352,6.0,14.0,28,0.00,,,0.00,0.000000,,2013-02-14 08:31:00,
2013-02-14 01:43:00,50.0,18.0,-100.00,North,352,6.0,14.0,28,0.00,,,0.00,0.000000,,2013-02-14 08:43:00,
2013-02-14 02:11:00,52.0,20.0,-100.00,North,358,7.0,14.0,28,0.00,,,0.00,0.000000,,2013-02-14 09:11:00,
2013-02-14 02:52:00,50.0,18.0,-100.00,North,357,8.0,15.0,28,-99.99,,,0.00,0.000000,,2013-02-14 09:52:00,
2013-02-14 03:11:00,50.0,18.0,-100.00,North,357,8.0,15.0,28,-99.99,,,0.00,0.000000,,2013-02-14 10:11:00,
2013-02-14 03:21:00,50.0,18.0,-100.00,North,357,8.0,15.0,28,-99.99,,,0.00,0.000000,,2013-02-14 10:21:00,
2013-02-14 03:31:00,50.0,18.0,-100.00,North,357,8.0,15.0,28,-99.99,,,0.00,0.000000,,2013-02-14 10:31:00,
2013-02-14 03:41:00,50.0,18.0,-100.00,North,357,8.0,15.0,28,-99.99,,,0.00,0.000000,,2013-02-14 10:41:00,
2013-02-14 03:52:00,50.0,18.0,-100.00,NNW,334,6.0,16.0,28,0.00,,,0.00,0.000000,,2013-02-14 10:52:00,
2013-02-14 04:21:00,50.0,18.0,-100.00,NNW,334,6.0,16.0,28,0.00,,,0.00,0.000000,,2013-02-14 11:21:00,
2013-02-14 04:31:00,50.0,18.0,-100.00,NNW,334,6.0,16.0,28,0.00,,,0.00,0.000000,,2013-02-14 11:31:00,
2013-02-14 04:42:00,50.0,18.0,-100.00,NNW,334,6.0,16.0,28,0.00,,,0.00,0.000000,,2013-02-14 11:42:00,
2013-02-14 05:22:00,52.0,22.0,-100.00,North,353,8.0,16.0,30,0.00,,,0.00,0.000000,,2013-02-14 12:22:00,
2013-02-14 06:21:00,49.0,20.0,-100.00,North,351,9.0,17.0,31,-99.99,,,0.00,0.000000,,2013-02-14 13:21:00,
2013-02-14 06:31:00,49.0,20.0,-100.00,North,351,9.0,17.0,31,-99.99,,,0.00,0.000000,,2013-02-14 13:31:00,
2013-02-14 06:41:00,49.0,20.0,-100.00,North,351,9.0,17.0,31,-99.99,,,0.00,0.000000,,2013-02-14 13:41:00,
2013-02-14 06:51:00,49.0,20.0,-100.00,North,351,9.0,17.0,31,-99.99,,,0.00,0.000000,,2013-02-14 13:51:00,
2013-02-14 08:11:00,50.0,20.0,-100.00,NNE,25,5.0,19.0,30,-99.99,,,0.00,12.000000,,2013-02-14 15:11:00,
2013-02-14 08:21:00,50.0,20.0,-100.00,NNE,25,5.0,19.0,30,-99.99,,,0.00,12.000000,,2013-02-14 15:21:00,
2013-02-14 08:41:00,50.0,20.0,-100.00,NNE,25,5.0,19.0,30,-99.99,,,0.00,12.000000,,2013-02-14 15:41:00,
2013-02-14 08:51:00,50.0,20.0,-100.00,NNE,25,5.0,19.0,30,-99.99,,,0.00,12.000000,,2013-02-14 15:51:00,
2013-02-14 09:11:00,54.0,22.0,-100.00,North,9,11.0,19.0,29,0.00,,,0.00,204.000000,,2013-02-14 16:11:00,
2013-02-14 09:21:00,54.0,22.0,-100.00,North,9,11.0,19.0,29,0.00,,,0.00,204.000000,,2013-02-14 16:21:00,
2013-02-14 09:51:00,54.0,22.0,-100.00,North,9,11.0,19.0,29,0.00,,,0.00,204.000000,,2013-02-14 16:51:00,
2013-02-14 09:52:00,56.0,23.0,-100.00,NNE,23,12.0,23.0,28,0.00,,,0.00,456.000000,,2013-02-14 16:52:00,
2013-02-14 10:11:00,56.0,23.0,-100.00,NNE,23,12.0,23.0,28,0.00,,,0.00,456.000000,,2013-02-14 17:11:00,
2013-02-14 11:22:00,57.0,22.0,-100.00,NNE,27,12.0,22.0,26,0.00,,,0.00,679.000000,,2013-02-14 18:22:00,
2013-02-14 12:11:00,61.0,22.0,-100.00,NNE,32,12.0,21.0,22,0.00,,,0.00,841.000000,,2013-02-14 19:11:00,
2013-02-14 12:21:00,61.0,22.0,-100.00,NNE,32,12.0,21.0,22,0.00,,,0.00,841.000000,,2013-02-14 19:21:00,
2013-02-14 12:52:00,60.0,21.0,-100.00,NNE,13,10.0,18.0,22,0.00,,,0.00,928.000000,,2013-02-14 19:52:00,
2013-02-14 13:21:00,60.0,21.0,-100.00,NNE,13,10.0,18.0,22,0.00,,,0.00,928.000000,,2013-02-14 20:21:00,
2013-02-14 13:31:00,60.0,21.0,-100.00,NNE,13,10.0,18.0,22,0.00,,,0.00,928.000000,,2013-02-14 20:31:00,
2013-02-14 13:41:00,60.0,21.0,-100.00,NNE,13,10.0,18.0,22,0.00,,,0.00,928.000000,,2013-02-14 20:41:00,
2013-02-14 14:11:00,59.0,21.0,-100.00,NNW,340,11.0,18.0,23,0.00,,,0.00,931.000000,,2013-02-14 21:11:00,
2013-02-14 14:21:00,59.0,21.0,-100.00,NNW,340,11.0,18.0,23,0.00,,,0.00,931.000000,,2013-02-14 21:21:00,
2013-02-14 14:31:00,59.0,21.0,-100.00,NNW,340,11.0,18.0,23,0.00,,,0.00,931.000000,,2013-02-14 21:31:00,
2013-02-14 14:41:00,59.0,21.0,-100.00,NNW,340,11.0,18.0,23,0.00,,,0.00,931.000000,,2013-02-14 21:41:00,
2013-02-14 14:51:00,59.0,21.0,-100.00,NNW,340,11.0,18.0,23,0.00,,,0.00,931.000000,,2013-02-14 21:51:00,
2013-02-14 15:21:00,58.0,21.0,-100.00,NNW,339,15.0,27.0,24,0.00,,,0.00,849.000000,,2013-02-14 22:21:00,
2013-02-14 15:31:00,58.0,21.0,-100.00,NNW,339,15.0,27.0,24,0.00,,,0.00,849.000000,,2013-02-14 22:31:00,
2013-02-14 15:41:00,58.0,21.0,-100.00,NNW,339,15.0,27.0,24,0.00,,,0.00,849.000000,,2013-02-14 22:41:00,
2013-02-14 15:51:00,58.0,21.0,-100.00,NNW,339,15.0,27.0,24,0.00,,,0.00,849.000000,,2013-02-14 22:51:00,
2013-02-14 15:52:00,58.0,20.0,-100.00,East,81,13.0,28.0,23,0.00,,,0.00,687.000000,,2013-02-14 22:52:00,
2013-02-14 16:11:00,58.0,20.0,-100.00,East,81,13.0,28.0,23,0.00,,,0.00,687.000000,,2013-02-14 23:11:00,
2013-02-14 16:21:00,58.0,20.0,-100.00,East,81,13.0,28.0,23,0.00,,,0.00,687.000000,,2013-02-14 23:21:00,
2013-02-14 16:31:00,58.0,20.0,-100.00,East,81,13.0,28.0,23,0.00,,,0.00,687.000000,,2013-02-14 23:31:00,
2013-02-14 16:41:00,58.0,20.0,-100.00,East,81,13.0,28.0,23,0.00,,,0.00,687.000000,,2013-02-14 23:41:00,
2013-02-14 17:11:00,59.0,22.0,-100.00,North,353,14.0,26.0,24,0.00,,,0.00,464.000000,,2013-02-15 00:11:00,
2013-02-14 17:21:00,59.0,22.0,-100.00,North,353,14.0,26.0,24,0.00,,,0.00,464.000000,,2013-02-15 00:21:00,
2013-02-14 17:31:00,59.0,22.0,-100.00,North,353,14.0,26.0,24,0.00,,,0.00,464.000000,,2013-02-15 00:31:00,
2013-02-14 17:41:00,59.0,22.0,-100.00,North,353,14.0,26.0,24,0.00,,,0.00,464.000000,,2013-02-15 00:41:00,
2013-02-14 17:51:00,59.0,22.0,-100.00,North,353,14.0,26.0,24,0.00,,,0.00,464.000000,,2013-02-15 00:51:00,
2013-02-14 18:11:00,54.0,20.0,-100.00,North,7,10.0,23.0,26,0.00,,,0.00,148.000000,,2013-02-15 01:11:00,
2013-02-14 18:21:00,54.0,20.0,-100.00,North,7,10.0,23.0,26,0.00,,,0.00,148.000000,,2013-02-15 01:21:00,
2013-02-14 18:31:00,54.0,20.0,-100.00,North,7,10.0,23.0,26,0.00,,,0.00,148.000000,,2013-02-15 01:31:00,
2013-02-14 18:41:00,54.0,20.0,-100.00,North,7,10.0,23.0,26,0.00,,,0.00,148.000000,,2013-02-15 01:41:00,
2013-02-14 18:51:00,54.0,20.0,-100.00,North,7,10.0,23.0,26,0.00,,,0.00,148.000000,,2013-02-15 01:51:00,
2013-02-14 19:11:00,54.0,21.0,-100.00,NE,48,10.0,22.0,27,0.00,,,0.00,7.000000,,2013-02-15 02:11:00,
2013-02-14 19:21:00,54.0,21.0,-100.00,NE,48,10.0,22.0,27,0.00,,,0.00,7.000000,,2013-02-15 02:21:00,
2013-02-14 19:31:00,54.0,21.0,-100.00,NE,48,10.0,22.0,27,0.00,,,0.00,7.000000,,2013-02-15 02:31:00,
2013-02-14 19:41:00,54.0,21.0,-100.00,NE,48,10.0,22.0,27,0.00,,,0.00,7.000000,,2013-02-15 02:41:00,
2013-02-14 19:51:00,54.0,21.0,-100.00,NE,48,10.0,22.0,27,0.00,,,0.00,7.000000,,2013-02-15 02:51:00,
2013-02-14 20:21:00,53.0,21.0,-100.00,North,7,8.0,22.0,28,0.00,,,0.00,0.000000,,2013-02-15 03:21:00,
2013-02-14 20:32:00,53.0,21.0,-100.00,North,7,8.0,22.0,28,0.00,,,0.00,0.000000,,2013-02-15 03:32:00,
2013-02-14 20:41:00,53.0,21.0,-100.00,North,7,8.0,22.0,28,0.00,,,0.00,0.000000,,2013-02-15 03:41:00,
2013-02-14 20:51:00,53.0,21.0,-100.00,North,7,8.0,22.0,28,0.00,,,0.00,0.000000,,2013-02-15 03:51:00,
2013-02-14 21:11:00,52.0,21.0,-100.00,NNE,23,6.0,16.0,29,0.00,,,0.00,0.000000,,2013-02-15 04:11:00,
2013-02-14 21:21:00,52.0,21.0,-100.00,NNE,23,6.0,16.0,29,0.00,,,0.00,0.000000,,2013-02-15 04:21:00,
2013-02-14 21:31:00,52.0,21.0,-100.00,NNE,23,6.0,16.0,29,0.00,,,0.00,0.000000,,2013-02-15 04:31:00,
2013-02-14 21:41:00,52.0,21.0,-100.00,NNE,23,6.0,16.0,29,0.00,,,0.00,0.000000,,2013-02-15 04:41:00,
2013-02-14 21:51:00,52.0,21.0,-100.00,NNE,23,6.0,16.0,29,0.00,,,0.00,0.000000,,2013-02-15 04:51:00,
2013-02-14 21:52:00,52.0,20.0,-100.00,NNW,343,12.0,22.0,28,0.00,,,0.00,0.000000,,2013-02-15 04:52:00,
2013-02-14 22:11:00,52.0,20.0,-100.00,NNW,343,12.0,22.0,28,0.00,,,0.00,0.000000,,2013-02-15 05:11:00,
2013-02-14 22:22:00,52.0,20.0,-100.00,NNW,343,12.0,22.0,28,0.00,,,0.00,0.000000,,2013-02-15 05:22:00,
2013-02-14 22:32:00,52.0,20.0,-100.00,NNW,343,12.0,22.0,28,0.00,,,0.00,0.000000,,2013-02-15 05:32:00,
2013-02-14 22:41:00,52.0,20.0,-100.00,NNW,343,12.0,22.0,28,0.00,,,0.00,0.000000,,2013-02-15 05:41:00,
2013-02-14 23:11:00,52.0,18.0,-100.00,North,350,14.0,25.0,26,0.00,,,0.00,0.000000,,2013-02-15 06:11:00,
2013-02-14 23:21:00,52.0,18.0,-100.00,North,350,14.0,25.0,26,0.00,,,0.00,0.000000,,2013-02-15 06:21:00,
2013-02-14 23:31:00,52.0,18.0,-100.00,North,350,14.0,25.0,26,0.00,,,0.00,0.000000,,2013-02-15 06:31:00,
2013-02-14 23:42:00,52.0,18.0,-100.00,North,350,14.0,25.0,26,0.00,,,0.00,0.000000,,2013-02-15 06:42:00,
2013-02-14 23:51:00,52.0,18.0,-100.00,North,350,14.0,25.0,26,0.00,,,0.00,0.000000,,2013-02-15 06:51:00,
2013-02-14 23:52:00,50.0,17.0,-100.00,NNW,345,18.0,27.0,27,0.00,,,0.00,0.000000,,2013-02-15 06:52:00,